Date String (YYYY-MM-DD hh:mm:ss) UTC,Instrument flags,absolute air pressure of the measurement (hPa),sample flow rate (lpm),inlet stack bypass flow (lpm),air temperature of the measurement (°C),ambient temperature measured by the external sensor (°C),aerosol sample conditioner tube jacket temperature (°C),OPC LED temperature (°C),internal box temperature (°C),relative humidity of the measurement (%),span deviation,mass concentration of particles derived from Lorenz-Mie calculation of OPC scattering (μg/m³),mass concentration of particles derived from Lorenz-Mie calculation of OPC scattering (μg/m³),mass concentration of particles derived from Lorenz-Mie calculation of OPC scattering (μg/m³)
DateTimeUTC,F1_M11,P_M11,Q1_M11,Q2_M11,T1_M11,T2_M11,T3_M11,T4_M11,T5_M11,U1_M11,ZSPAN_M11,X2_M11,X0_M11,X1_M11
2023-10-30 13:00:00,SystemResetWarning,0835.6,5.01,000.00,021.2,020.2,000.0,029.7,022.7,8.2,0000.0,0003.40,0005.34,0003.21
2023-10-30 13:01:00,SystemResetWarning,0835.7,5.00,000.00,021.4,021.0,000.0,029.6,023.1,8.2,0000.0,0003.39,0005.34,0003.20
2023-10-30 13:02:00,SystemResetWarning,0835.8,4.99,000.00,021.5,021.6,000.0,029.6,023.3,8.1,0000.0,0003.38,0005.32,0003.19
2023-10-30 13:03:00,SystemResetWarning,0835.8,4.99,000.00,021.5,021.4,000.0,029.7,023.2,8.1,0000.0,0003.37,0005.27,0003.19
2023-10-30 13:04:00,SystemResetWarning,0835.8,5.01,000.00,021.5,021.2,000.0,029.7,023.0,8.1,0000.0,0003.39,0005.39,0003.20
2023-10-30 13:05:00,SystemResetWarning,0835.8,5.00,000.00,021.5,021.0,000.0,029.7,022.9,8.1,0000.0,0003.39,0005.49,0003.20
2023-10-30 13:06:00,SystemResetWarning,0835.7,5.00,000.00,021.4,020.8,000.0,029.8,022.9,8.1,0000.0,0003.41,0005.58,0003.20
2023-10-30 13:07:00,SystemResetWarning,0835.7,5.00,000.00,021.4,020.6,000.0,029.8,022.8,8.1,0000.0,0003.40,0005.60,0003.19
2023-10-30 13:08:00,SystemResetWarning,0835.6,5.00,000.00,021.4,020.4,000.0,029.8,022.8,8.1,0000.0,0003.40,0005.71,0003.18
2023-10-30 13:09:00,SystemResetWarning,0835.6,5.00,000.00,021.4,020.3,000.0,029.8,022.7,8.2,0000.0,0003.40,0005.22,0003.18
2023-10-30 13:10:00,SystemResetWarning,0835.6,4.99,000.00,021.3,020.2,000.0,029.8,022.7,8.1,0000.0,0003.37,0004.77,0003.17
2023-10-30 13:11:00,SystemResetWarning,0835.6,5.00,000.00,021.3,020.3,000.0,029.7,022.8,8.1,0000.0,0003.36,0004.74,0003.17
2023-10-30 13:12:00,SystemResetWarning,0835.7,5.01,000.00,021.5,021.0,000.0,029.7,023.2,8.1,0000.0,0003.36,0004.70,0003.18
2023-10-30 13:13:00,SystemResetWarning,0835.6,5.01,000.00,021.6,021.7,000.0,029.7,023.5,8.0,0000.0,0003.35,0004.63,0003.17
2023-10-30 13:14:00,SystemResetWarning,0835.5,4.99,000.00,021.6,021.6,000.0,029.7,023.3,8.0,0000.0,0003.34,0004.59,0003.17
2023-10-30 13:15:00,SystemResetWarning,0835.5,5.00,000.00,021.6,021.4,000.0,029.8,023.1,8.0,0000.0,0003.34,0004.55,0003.17
2023-10-30 13:16:00,SystemResetWarning,0835.6,5.00,000.00,021.5,021.1,000.0,029.8,023.0,8.0,0000.0,0003.34,0004.43,0003.16
2023-10-30 13:17:00,SystemResetWarning,0835.5,5.00,000.00,021.5,020.9,000.0,029.8,022.9,8.0,0000.0,0003.33,0004.35,0003.16
2023-10-30 13:18:00,SystemResetWarning,0835.6,5.00,000.00,021.5,020.6,000.0,029.8,022.8,8.0,0000.0,0003.32,0004.28,0003.15
2023-10-30 13:19:00,SystemResetWarning,0835.5,5.00,000.00,021.4,020.4,000.0,029.8,022.8,8.1,0000.0,0003.30,0004.28,0003.14
2023-10-30 13:20:00,SystemResetWarning,0835.5,5.00,000.00,021.4,020.3,000.0,029.8,022.7,8.2,0000.0,0003.31,0004.38,0003.14
2023-10-30 13:21:00,SystemResetWarning,0835.6,5.00,000.00,021.4,020.2,000.0,029.8,022.7,8.2,0000.0,0003.34,0004.44,0003.14
2023-10-30 13:22:00,SystemResetWarning,0835.6,5.00,000.00,021.3,020.0,000.0,029.8,022.6,8.2,0000.0,0003.34,0004.45,0003.15
2023-10-30 13:23:00,SystemResetWarning,0835.6,5.00,000.00,021.3,020.3,000.0,029.7,022.8,8.1,0000.0,0003.34,0004.45,0003.15
2023-10-30 13:24:00,SystemResetWarning,0835.6,5.01,000.00,021.4,021.1,000.0,029.7,023.2,8.1,0000.0,0003.34,0004.45,0003.15
2023-10-30 13:25:00,SystemResetWarning,0835.6,4.99,000.00,021.6,021.6,000.0,029.7,023.4,8.0,0000.0,0003.33,0004.49,0003.14
2023-10-30 13:26:00,SystemResetWarning,0835.6,4.98,000.00,021.6,021.4,000.0,029.8,023.2,8.0,0000.0,0003.32,0004.49,0003.14
2023-10-30 13:27:00,SystemResetWarning,0835.5,5.00,000.00,021.5,021.2,000.0,029.8,023.0,8.0,0000.0,0003.30,0004.43,0003.13
2023-10-30 13:28:00,SystemResetWarning,0835.6,5.00,000.00,021.5,020.9,000.0,029.8,023.0,8.0,0000.0,0003.31,0004.46,0003.13
2023-10-30 13:29:00,SystemResetWarning,0835.5,5.00,000.00,021.5,020.7,000.0,029.8,022.9,8.0,0000.0,0003.30,0005.91,0003.13
2023-10-30 13:30:00,SystemResetWarning,0835.5,4.99,000.00,021.5,020.5,000.0,029.8,022.8,8.0,0000.0,0003.31,0006.02,0003.14
2023-10-30 13:31:00,SystemResetWarning,0835.6,4.99,000.00,021.4,020.3,000.0,029.8,022.7,8.0,0000.0,0003.29,0005.78,0003.15
2023-10-30 13:32:00,SystemResetWarning,0835.6,5.00,000.00,021.4,020.2,000.0,029.8,022.7,8.1,0000.0,0003.28,0005.74,0003.15
2023-10-30 13:33:00,SystemResetWarning,0835.7,5.01,000.00,021.4,020.1,000.0,029.8,022.7,8.1,0000.0,0003.28,0005.76,0003.14
2023-10-30 13:34:00,SystemResetWarning,0835.6,5.01,000.00,021.4,020.2,000.0,029.8,022.8,8.1,0000.0,0003.26,0005.74,0003.13
2023-10-30 13:35:00,SystemResetWarning,0835.6,5.00,000.00,021.5,021.1,000.0,029.7,023.2,8.1,0000.0,0003.27,0005.79,0003.13
2023-10-30 13:36:00,SystemResetWarning,0835.6,5.00,000.00,021.6,021.8,000.0,029.7,023.5,8.0,0000.0,0003.26,0005.72,0003.13
2023-10-30 13:37:00,SystemResetWarning,0835.6,4.99,000.00,021.6,021.7,000.0,029.8,023.4,8.0,0000.0,0003.28,0005.77,0003.14
2023-10-30 13:38:00,SystemResetWarning,0835.6,4.99,000.00,021.6,021.5,000.0,029.8,023.2,8.0,0000.0,0003.28,0005.78,0003.13
2023-10-30 13:39:00,SystemResetWarning,0835.6,5.00,000.00,021.6,021.2,000.0,029.9,023.1,8.0,0000.0,0003.26,0005.73,0003.12
2023-10-30 13:40:00,SystemResetWarning,0835.6,5.00,000.00,021.6,021.0,000.0,029.9,023.1,8.0,0000.0,0003.27,0004.61,0003.12
2023-10-30 13:41:00,SystemResetWarning,0835.6,5.00,000.00,021.6,020.8,000.0,029.9,023.0,8.1,0000.0,0003.29,0004.30,0003.12
2023-10-30 13:42:00,SystemResetWarning,0835.6,5.00,000.00,021.6,020.7,000.0,029.9,023.0,8.2,0000.0,0003.31,0004.37,0003.12
2023-10-30 13:43:00,SystemResetWarning,0835.6,5.00,000.00,021.5,020.5,000.0,029.9,022.9,8.4,0000.0,0003.30,0004.38,0003.11
2023-10-30 13:44:00,SystemResetWarning,0835.6,5.00,000.00,021.5,020.4,000.0,029.9,022.9,8.5,0000.0,0003.29,0004.30,0003.11
2023-10-30 13:45:00,SystemResetWarning,0835.6,5.00,000.00,021.5,020.3,000.0,029.9,022.8,8.7,0000.0,0003.30,0004.32,0003.11
2023-10-30 13:46:00,SystemResetWarning,0835.6,5.00,000.00,021.4,020.2,000.0,029.9,022.8,8.9,0000.0,0003.31,0004.34,0003.12
2023-10-30 13:47:00,SystemResetWarning,0835.6,5.01,000.00,021.4,020.2,000.0,029.9,022.8,9.0,0000.0,0003.31,0004.32,0003.12
2023-10-30 13:48:00,SystemResetWarning,0835.6,5.02,000.00,021.5,021.0,000.0,029.8,023.2,9.0,0000.0,0003.29,0004.24,0003.12
2023-10-30 13:49:00,SystemResetWarning,0835.6,5.00,000.00,021.7,021.9,000.0,029.8,023.6,8.9,0000.0,0003.27,0004.25,0003.12
2023-10-30 13:50:00,SystemResetWarning,0835.8,5.00,000.00,021.8,022.0,000.0,029.9,023.6,8.9,0000.0,0003.31,0004.35,0003.14
2023-10-30 13:51:00,SystemResetWarning,0835.8,4.99,000.00,021.8,021.8,000.0,029.9,023.4,8.8,0000.0,0003.31,0004.29,0003.15
2023-10-30 13:52:00,SystemResetWarning,0835.6,5.00,000.00,021.8,021.5,000.0,030.0,023.3,8.8,0000.0,0003.30,0004.35,0003.14
2023-10-30 13:53:00,SystemResetWarning,0835.6,5.00,000.00,021.7,021.3,000.0,030.0,023.3,8.9,0000.0,0003.31,0004.35,0003.15
2023-10-30 13:54:00,SystemResetWarning,0835.6,5.00,000.00,021.7,021.1,000.0,030.0,023.2,8.9,0000.0,0003.32,0004.36,0003.17
2023-10-30 13:55:00,SystemResetWarning,0835.6,5.00,000.00,021.7,020.9,000.0,030.0,023.1,8.9,0000.0,0003.32,0004.42,0003.17
2023-10-30 13:56:00,SystemResetWarning,0835.6,5.00,000.00,021.7,020.7,000.0,030.0,023.0,8.9,0000.0,0003.33,0004.46,0003.18
2023-10-30 13:57:00,SystemResetWarning,0835.6,5.01,000.00,021.6,020.6,000.0,030.0,023.0,8.7,0000.0,0003.35,0004.59,0003.18
2023-10-30 13:58:00,SystemResetWarning,0835.6,5.00,000.00,021.6,020.4,000.0,030.0,022.9,8.6,0000.0,0003.37,0004.73,0003.19
2023-10-30 13:59:00,SystemResetWarning,0835.6,5.00,000.00,021.6,020.3,000.0,030.0,022.9,8.6,0000.0,0003.38,0004.75,0003.19
